User: anonymous   Login
Location: Standeford and Andreas Observatories
(44.1397°N, 93.9969°W)
Time: 14:53:23
(UTC-06:00)
Language:

Cosmos 1500 Rocket - Orbit

View from above orbital plane
View from above orbital plane
View from above satellite
View from above satellite

Ground track
Ground track

The orbit data is extracted from the following two-line orbital elements,

1 14373U 83099B   15059.64859995  .00000422  00000-0  48346-4 0  9999
2 14373 082.5422 308.9810 0021743 114.8120 273.3210 14.83360401696409
Epoch (UTC): 28 February 2015 15:33:59
Eccentricity: 0.0021743
inclination: 82.5422°
perigee height: 603 km
apogee height: 634 km
right ascension of ascending node: 308.9810°
argument of perigee: 114.8120°
revolutions per day: 14.83360401
mean anomaly at epoch: 273.3210°
orbit number at epoch: 69640

The dashed part of the orbit path shows where the satellite is in the earth's shadow,  

DLR